Domov               UVHVVR             MKGP            O straneh              
ZDRAVSTVENO VARSTVO RASTLIN
  MREŽA AGROMET. POSTAJ
 ► PROGNOSTIČNA OBVESTILA
AGROMETEOROLOŠKI PODATKI -
ARSO
OBVLADOVANJE TVEGANJ ZARADI
NEUGODNIH VREMENSKIH RAZMER
  ► NARAVNE NESREČE
  ► SUŠA/MOČA
  ► NAMAKANJE
  ► ŽLED (gozdarstvo)
KARTOGRAFSKI PRIKAZI
SPLETNE POVEZAVE
PROJEKTI IN PUBLIKACIJE

AGROMETEOROLOŠKA MREŽA: VREMENSKE POSTAJE IN FENOLOŠKA OPAZOVANJA

Pregled podatkov za lokacijo Maribor - BTŠ, meteorološka postaja 35810

Pregled senzorjev na lokaciji

ID Ime Zadnja
vrednost
Datum
zadnje
spremembe
Tip
senzorja
1721 Temperatura 2 m ( °C) 18,34 °C 25.6.2017 03:30 Generic -40 - +60 °C
1722 Relativna vlaga 2 m (% RH) 87,89 % RH 25.6.2017 03:30 Generic 0 - 100 %
1723 Padavine 0.2 mm (mm) 0,2 mm 25.6.2017 03:30 Generic 0.2 mm
1724 Omočenost lista (U) 10 U 25.6.2017 03:30 A730WET

Pregled podatkov zadnjih 24 ur

Zap.
št.
Datum in čas Maribor - BTŠ
Omočenost
lista
Padavine
0.2
mm
Relativna
vlaga
2
m
Temperatura
2
m
0 25.6.2017 02:30 10 0,2 87,89 18,34
1 25.6.2017 02:00 3 0,4 61,05 22,22
2 25.6.2017 01:30 0 0 67,03 23,25
3 25.6.2017 01:00 0 0 80,42 21,86
4 25.6.2017 00:30 0 0 84,96 21,2
5 25.6.2017 00:00 0 0 88,79 20,81
6 24.6.2017 23:30 0 0 87,81 21,15
7 24.6.2017 23:00 0 0 87,4 21,27
8 24.6.2017 22:30 0 0 85,98 21,71
9 24.6.2017 22:00 0 0 84,05 22,17
10 24.6.2017 21:30 0 0 81,39 22,83
11 24.6.2017 21:00 0 0 74,43 24,49
12 24.6.2017 20:30 0 0 66,54 26,23
13 24.6.2017 20:00 0 0 62,22 27,2
14 24.6.2017 19:30 0 0 58,61 27,86
15 24.6.2017 19:00 0 0 54,85 28,86
16 24.6.2017 18:30 0 0 51,23 29,67
17 24.6.2017 18:00 0 0 51,23 29,3
18 24.6.2017 17:30 0 0 51,79 29,47
19 24.6.2017 17:00 0 0 52,7 29,21
20 24.6.2017 16:30 0 0 51,11 29,77
21 24.6.2017 16:00 0 0 45,71 30,62
22 24.6.2017 15:30 0 0 38,9 31,97
23 24.6.2017 15:00 0 0 35,16 32,99
24 24.6.2017 14:30 0 0 36,04 32,89
25 24.6.2017 14:00 0 0 40,44 32,53
26 24.6.2017 13:30 0 0 42,91 31,7
27 24.6.2017 13:00 0 0 44,54 31,31
28 24.6.2017 12:30 0 0 45,2 30,87
29 24.6.2017 12:00 0 0 46,15 30,09
30 24.6.2017 11:30 0 0 43,81 29,57
31 24.6.2017 11:00 0 0 41,95 28,89
32 24.6.2017 10:30 0 0 45,79 28,03
33 24.6.2017 10:00 0 0 50,18 27,18
34 24.6.2017 09:30 0 0 54,36 26,18
35 24.6.2017 09:00 0 0 56,14 25,2
36 24.6.2017 08:30 0 0 57,73 24,37
37 24.6.2017 08:00 0 0 58,17 23,54
38 24.6.2017 07:30 0 0 65,93 21,93
39 24.6.2017 07:00 0 0 76,85 19,8
40 24.6.2017 06:30 0 0 80,66 18,61
41 24.6.2017 06:00 0 0 82,64 17,61
42 24.6.2017 05:30 0 0 84,54 17
43 24.6.2017 05:00 0 0 90,31 16,12
44 24.6.2017 04:30 0 0 98,24 15,26
45 24.6.2017 04:00 0 0 90,67 15,78
© 2011 Ministrstvo za kmetijstvo, gozdarstvo in prehrano. Vse pravice pridržane.